Location: Appleton
(44.2618°N, 88.4157°W)
Time: 16:41:32
(UTC+00:00)

Vanguard 1 - Visible Passes

Search period start: 27 February 2021 00:00
Search period end: 09 March 2021 00:00
Orbit: 649 x 3833 km, 34.2° (Epoch: 26 February)

Date Brightness Start Highest point End Pass type
(mag) Time Alt. Az. Time Alt. Az. Time Alt. Az.
27 Feb 11.8 09:42:15 12° SE 09:42:15 12° SE 09:43:06 10° SE visible
27 Feb 11.0 11:56:11 10° SW 12:00:10 29° S 12:05:28 10° ESE visible
28 Feb 11.3 10:02:02 17° SSE 10:02:02 17° SSE 10:04:41 10° ESE visible
01 Mar 10.9 10:21:49 20° S 10:22:15 21° SSE 10:25:50 10° ESE visible
02 Mar 10.7 10:41:35 21° SSW 10:42:53 24° S 10:46:48 10° ESE visible
03 Mar 10.7 11:01:21 17° SW 11:03:33 25° S 11:07:39 10° ESE visible
04 Mar 10.8 11:21:06 12° SW 11:24:13 25° S 11:28:23 10° SE visible
05 Mar 11.6 09:28:08 14° SE 09:28:08 14° SE 09:29:03 10° ESE visible
05 Mar 10.9 11:41:23 10° WSW 11:44:54 23° S 11:48:58 10° SE visible
06 Mar 11.1 09:47:53 20° SE 09:47:53 20° SE 09:49:54 10° ESE visible
07 Mar 10.7 10:07:38 24° SSE 10:07:38 24° SSE 10:10:36 10° SE visible
08 Mar 10.6 10:27:22 23° SSW 10:27:37 23° S 10:31:13 10° SE visible
